This is the latest recevied weather packets stored in our database for station/object KB0BDN-13. If no packets are shown the sender has not sent any weather packets the latest 10 day(s).
| Time | Temp. | Humidity | Pressure | Rain* | Wind** | Luminosity | Snow |
|---|---|---|---|---|---|---|---|
| 1787929294 | 17.22° C | 70% | 1014.9 hPa | 0 mm | - | - | - |
| 1787929152 | 17.22° C | 71% | 1014.9 hPa | 0 mm | - | - | - |
| 1787928394 | 16.11° C | 74% | 1014.9 hPa | 0 mm | - | - | - |
| 1787928252 | 16.11° C | 76% | 1014.9 hPa | 0 mm | - | - | - |
| 1787927494 | 15° C | 87% | 1014.9 hPa | 0 mm | - | - | - |
| 1787927354 | 15° C | - | - | 0 mm | - | - | - |
| 1787927353 | 15° C | 89% | 1014.8 hPa | 0 mm | - | - | - |
| 1787926593 | 13.33° C | 99% | 1014.8 hPa | 0 mm | - | - | - |
| 1787926454 | 13.33° C | 99% | 1014.9 hPa | 0 mm | - | - | - |
| 1787925693 | 12.22° C | 99% | 1014.9 hPa | 0 mm | - | - | - |
| 1787925552 | 11.67° C | 99% | 1014.9 hPa | 0 mm | - | - | - |
| 1787924793 | 10.56° C | 99% | 1014.9 hPa | 0 mm | - | - | - |
| 1787924651 | 10.56° C | 99% | 1014.9 hPa | 0 mm | - | - | - |
| 1787923893 | 10° C | 98% | 1014.9 hPa | 0 mm | - | - | - |
| 1787923752 | 10° C | 98% | 1014.9 hPa | 0 mm | - | - | - |
| 1787922993 | 8.33° C | 98% | 1014.9 hPa | 0 mm | - | - | - |
| 1787922852 | - | - | - | - | - | - | - |
| 1787922852 | 8.33° C | 98% | 1014.9 hPa | 0 mm | - | - | - |
| 1787922093 | 7.22° C | 98% | 1014.9 hPa | 0 mm | - | - | - |
| 1787921952 | 7.22° C | 98% | 1014.9 hPa | 0 mm | - | - | - |
| 1787921193 | 6.67° C | 98% | 1014.9 hPa | 0 mm | - | - | - |
| 1787921051 | 6.11° C | 98% | 1015 hPa | 0 mm | - | - | - |
| 1787920293 | 5° C | 97% | 1015 hPa | 0 mm | - | - | - |
| 1787920152 | 5° C | 97% | 1014.9 hPa | 0 mm | - | - | - |
| 1787919393 | 4.44° C | 97% | 1014.9 hPa | 0 mm | - | - | - |
* Rain latest hour (hover to see other rain measurements)
** Current wind speed in m/s (hover to see current wind gust speed)